Rock Springs, WY

2:36 AM MDT on July 27, 2017 (GMT -0600)
Rock Springs-Sweetwater

Weather History for KRKS - June, 2013

Change the Weather History Date:

Saturday, June 8, 2013

  Actual Average Record
Temperature  
Mean Temperature 69 °F 58 °F  
Max Temperature 83 °F 72 °F 85 °F (1996)
Min Temperature 55 °F 44 °F 30 °F (1950)
Degree Days  
Heating Degree Days 0 8  
Month to date heating degree days 40 69  
Since 1 June heating degree days 40 69  
Since 1 July heating degree days 7624 8044  
Cooling Degree Days 4 0  
Month to date cooling degree days 5 0  
Year to date cooling degree days 6 1  
Since 1 June cooling degree days 5 0  
Growing Degree Days 20 (Base 50)    
Moisture  
Dew Point 30 °F    
Average Humidity 28    
Maximum Humidity 47    
Minimum Humidity 9    
Precipitation  
Precipitation 0.00 in 0.03 in 1.13 in (1969)
Month to date precipitation 0.00 0.26  
Year to date precipitation 0.56 3.99  
Sea Level Pressure  
Sea Level Pressure 29.80 in    
Wind  
Wind Speed 15 mph (WNW)    
Max Wind Speed 28 mph    
Max Gust Speed 35 mph    
Visibility 10 miles    
Events      
T = Trace of Precipitation, MM = Missing Value Source: NWS Daily Summary

Daily Weather History Graph

Daily Weather History Graph

Search for Another Location

Airport or City:

Trip Planner

Search our weather history database for the weather conditions in past years. The results will help you decide how hot, cold, wet, or windy it might be!

Date:

Astronomy

Jun. 08, 2013 Rise Set
Actual Time 5:42 AM MDT 8:48 PM MDT
Civil Twilight 5:08 AM MDT 9:22 PM MDT
Nautical Twilight 4:25 AM MDT 10:06 PM MDT
Astronomical Twilight 3:33 AM MDT 10:57 PM MDT
Moon 5:53 AM MDT (6/8) 8:53 PM MDT (6/8)
Length of Visible Light 16h 14m
Length of Day
15h 06m
New Moon, 0% of the Moon is Illuminated
Jun 8
New Moon
Jun 16
First Quarter
Jun 23
Full
Jun 29
Last Quarter
Jul 8
New

Hourly Weather History & Observations

Time (MDT) Temp. Dew Point Humidity Pressure Visibility Wind Dir Wind Speed Gust Speed Precip Events Conditions
12:54 AM 63.0 °F 37.0 °F 38% 29.71 in 10.0 mi WSW 16.1 mph - N/A   Clear
1:54 AM 61.0 °F 36.0 °F 39% 29.70 in 10.0 mi West 18.4 mph - N/A   Clear
2:54 AM 60.1 °F 36.0 °F 41% 29.70 in 10.0 mi WSW 16.1 mph 26.5 mph N/A   Clear
3:54 AM 59.0 °F 36.0 °F 42% 29.72 in 10.0 mi WSW 15.0 mph - N/A   Clear
4:54 AM 59.0 °F 35.1 °F 41% 29.71 in 10.0 mi WSW 17.3 mph - N/A   Clear
5:54 AM 57.9 °F 34.0 °F 41% 29.77 in 10.0 mi West 13.8 mph - N/A   Clear
6:54 AM 57.0 °F 37.0 °F 47% 29.82 in 10.0 mi NE 9.2 mph - N/A   Clear
7:54 AM 60.1 °F 39.9 °F 47% 29.85 in 10.0 mi NE 12.7 mph - N/A   Clear
8:54 AM 61.0 °F 39.9 °F 46% 29.85 in 10.0 mi East 8.1 mph - N/A   Clear
9:54 AM 64.0 °F 37.9 °F 38% 29.86 in 10.0 mi Variable 3.5 mph - N/A   Clear
10:54 AM 68.0 °F 36.0 °F 31% 29.83 in 10.0 mi Variable 5.8 mph - N/A   Clear
11:54 AM 72.0 °F 30.9 °F 22% 29.82 in 10.0 mi WNW 12.7 mph 23.0 mph N/A   Clear
12:54 PM 73.9 °F 28.9 °F 19% 29.80 in 10.0 mi NW 13.8 mph 24.2 mph N/A   Clear
1:54 PM 77.0 °F 27.0 °F 16% 29.79 in 10.0 mi NW 12.7 mph 20.7 mph N/A   Clear
2:54 PM 80.1 °F 24.1 °F 13% 29.78 in 10.0 mi WNW 16.1 mph 31.1 mph N/A   Clear
3:54 PM 82.0 °F 21.0 °F 10% 29.77 in 10.0 mi WNW 24.2 mph 28.8 mph N/A   Clear
4:54 PM 81.0 °F 18.0 °F 10% 29.78 in 10.0 mi West 19.6 mph 29.9 mph N/A   Clear
5:54 PM 80.1 °F 19.9 °F 11% 29.78 in 10.0 mi WNW 25.3 mph 32.2 mph N/A   Clear
6:54 PM 78.1 °F 19.9 °F 11% 29.79 in 10.0 mi WNW 19.6 mph 26.5 mph N/A   Clear
7:54 PM 75.0 °F 19.0 °F 12% 29.81 in 10.0 mi WNW 24.2 mph 28.8 mph N/A   Clear
8:54 PM 70.0 °F 25.0 °F 18% 29.85 in 10.0 mi WNW 16.1 mph - N/A   Clear
9:54 PM 66.9 °F 28.9 °F 24% 29.88 in 10.0 mi WNW 18.4 mph 26.5 mph N/A   Clear
10:54 PM 64.9 °F 28.0 °F 25% 29.89 in 10.0 mi WNW 18.4 mph 24.2 mph N/A   Clear
11:54 PM 63.0 °F 28.0 °F 27% 29.90 in 10.0 mi WNW 13.8 mph - N/A   Clear